Hourly Data Report for October 24, 2015

All times are specified in Local Standard Time (LST). Add 1 hour to adjust for Daylight Saving Time where and when it is observed.

RESOLUTE BAY A
NUNAVUT

74°43'01.000" N
94°58'10.000" W
67.70 m
2403498
71924
YRB

Download Data

Hourly Data (October 2015)
Hourly Data Report for October 24, 2015
Temp Definition
°C
Dew Point Temp Definition
°C
Rel Hum Definition
%
Wind Dir Definition
10's deg

Wind Spd Definition
km/h
Visibility Definition
km
Stn Press Definition
kPa
Hmdx Definition


Wind Chill Definition


Weather Definition


TIME
00:00 Legend Double Dagger -20.2 -22.8 80 34 21 24.1 99.80   -31 Snow
01:00 Legend Double Dagger -19.1 -21.7 80 34 25 16.1 99.74   -30 Snow
02:00 Legend Double Dagger -18.7 -21.3 80 36 16 16.1 99.65   -28 Snow
03:00 Legend Double Dagger -18.5 -21.0 81 34 16 16.1 99.59   -28 Snow
04:00 Legend Double Dagger -18.5 LegendMM LegendMM 1 17 16.1 101.46   -28 Snow
05:00 Legend Double Dagger -19.0 -21.5 81 35 21 24.1 99.50   -29 Snow
06:00 Legend Double Dagger -18.9 -21.4 81 36 25 24.1 99.46   -30 Snow
07:00 Legend Double Dagger -18.9 -21.4 81 36 26 24.1 99.45   -30 Snow
08:00 Legend Double Dagger -20.5 -23.3 79 1 29 12.9 99.49   -33 LegendNANA
09:00 Legend Double Dagger -21.4 -24.0 80 36 41 24.1 99.50   -36 Mainly Clear
10:00 Legend Double Dagger -21.1 -23.8 79 1 44 24.1 99.52   -36 LegendNANA
11:00 Legend Double Dagger -22.0 -24.7 79 1 43 1.6 99.51   -37 Blowing Snow
12:00 Legend Double Dagger -22.4 -25.3 78 36 37 24.1 99.55   -37 Mainly Clear
13:00 Legend Double Dagger -22.0 -24.9 78 2 46 24.1 99.55   -38 LegendNANA
14:00 Legend Double Dagger -23.6 -26.6 77 34 37 24.1 99.61   -38 LegendNANA
15:00 Legend Double Dagger -23.1 -25.7 80 34 45 1.6 99.62   -39 Blowing Snow
16:00 Legend Double Dagger -21.9 -24.6 79 35 55 1.6 99.59   -39 Blowing Snow
17:00 Legend Double Dagger -22.6 -25.3 79 35 53 1.6 99.60   -39 Blowing Snow
18:00 Legend Double Dagger -22.8 -25.5 79 36 47 6.4 99.57   -39 Blowing Snow
19:00 Legend Double Dagger -23.2 -25.9 79 35 50 6.4 99.55   -40 Blowing Snow
20:00 Legend Double Dagger -22.3 -25.0 79 35 33 1.6 99.59   -36 Blowing Snow
21:00 Legend Double Dagger -21.1 -23.6 81 35 52 0.8 99.54   -37 Blowing Snow
22:00 Legend Double Dagger -21.0 -23.6 80 35 49 0.8 99.49   -37 Blowing Snow
23:00 Legend Double Dagger -22.7 -25.4 79 36 39 8.1 99.44   -38 Blowing Snow

Notes on Data Quality.

Legend

  • E = Estimated
  • M = Missing
  • NA = Not Available
  • ‡ = Partner data that is not subject to review by the National Climate Archives
Date modified: